User: anonymous   Login
Location: Unspecified
(0.0000°N, 0.0000°E)
Time: 09:04:07
(UTC+00:00)
Language:

CAPE 1 - Orbit

View from above orbital plane
View from above orbital plane
View from above satellite
View from above satellite

Ground track
Ground track

The orbit data is extracted from the following two-line orbital elements,

1 31130U 07012P   19345.78368039 +.00000073 +00000-0 +26303-4 0  9992
2 31130 098.1808 282.3955 0094728 261.3549 097.6909 14.56477601671351
Epoch (UTC): 11 December 2019 18:48:29
Eccentricity: 0.0094728
inclination: 98.1808°
perigee height: 637 km
apogee height: 771 km
right ascension of ascending node: 282.3955°
argument of perigee: 261.3549°
revolutions per day: 14.56477601
mean anomaly at epoch: 97.6909°
orbit number at epoch: 67135

The dashed part of the orbit path shows where the satellite is in the earth's shadow,  

DLR